Regional Weather Roundup
Issued by NWS Midland/Odessa, TX

Home | Current Version | Previous Version | Text Only | Print | Product List | Glossary On
Versions: 1 2 3 4 5 6 7 8 9 10 11 12 13 14 15 16 17 18 19 20 21 22 23 24 25 26 27 28 29 30 31 32 33 34 35 36 37 38 39 40 41 42 43 44 45 46 47 48 49 50
000
ASUS44 KMAF 181410
RWRMAF
MIDLAND AREA WEATHER ROUNDUP
NATIONAL WEATHER SERVICE MIDLAND TX
800 AM CST THU DEC 18 2014

...IN SOUTHWEST TEXAS AND SOUTHEAST NEW MEXICO...

CITY           SKY/WX    TMP DP  RH WIND       PRES   REMARKS
ALPINE         CLEAR     31  26  81 SW7       30.22R WCI  24
ANDREWS        FAIR      37  31  77 W3        30.11S
ARTESIA        CLEAR     32  28  86 NW10      30.13R WCI  24
BIG SPRING     CLEAR     38  33  81 CALM      30.14R
CARLSBAD       PTCLDY    50  35  56 W8        30.10R
DRYDEN           N/A     43  42  97 S3        30.11R
FORT STOCKTON  CLEAR     43  29  57 SW13      30.13R WCI  36
GUAD PASS      NOT AVBL
HOBBS          CLEAR     36  32  87 NW5       30.11R WCI  32
MARFA          PTCLDY    27  21  80 N5        30.17R WCI  21
MIDLAND AIRPK  CLEAR     44  33  64 NW5       30.13R
MIDLAND INTL   CLEAR     42  32  67 S6        30.12R WCI  38
ODESSA         PTCLDY    43  30  60 W6        30.12R WCI  39
PECOS          CLEAR     44  32  62 SW13      30.12S WCI  37
PRESIDIO       FAIR      42  30  62 N7        30.15R WCI  38
SEMINOLE       CLEAR     36  30  80 NW8       30.11S WCI  29
SNYDER         CLEAR     36  35  99 CALM      30.10S
WINK           PTCLDY    36  26  67 CALM      30.11R
$$
...OTHER STATIONS IN TEXAS...

CITY           SKY/WX    TMP DP  RH WIND       PRES   REMARKS
ABILENE        CLEAR     43  42  97 SW7       30.10R FOG     WCI  39
AMARILLO       CLOUDY    34  33  96 N5        30.09R WCI  30
AUSTIN         FOG       49  49 100 N6        30.12R VSB 1
BROWNSVILLE    MOCLDY    70  68  93 SE5       30.04R
CORPUS CHRISTI MOCLDY    67  66  97 SE7       30.04R
DALLAS FTW     DRZL/FOG  43  42  97 SE3       30.14R VSB 1
DEL RIO        CLOUDY    53  50  89 W5        30.11R
EL PASO        PTCLDY    38  33  82 E5        30.13S WCI  34
HOUSTON INT    FOG       58  57  97 N7        30.09R VSB 1/2
LUBBOCK        PTCLDY    36  30  79 NW14      30.06S WCI  27
SAN ANGELO     FOG       46  45  96 SW5       30.12R VSB 1/4
SAN ANTONIO    DRIZZLE   58  56  93 N5        30.10R FOG
WACO           FOG       47  46  97 E3        30.13S VSB 1
WICHITA FALLS  NOT AVBL
$$
...OTHER LOCATIONS IN NEW MEXICO...

CITY           SKY/WX    TMP DP  RH WIND       PRES   REMARKS
ALAMAGORDO     PTCLDY    36  32  87 SE6       30.13S WCI  31
ALBUQUERQUE    PTCLDY    29  26  89 CALM      30.15R
CANNON AFB     CLEAR     32  26  78 NW12      30.07R WCI  23
CLOVIS         CLEAR     30  23  74 NW7       30.08R WCI  23
HOLLOMAN AFB   PTCLDY    37  32  83 SE6       30.12S WCI  32
ROSWELL        CLEAR     30  25  81 SW8       30.11R WCI  22
RUIDOSO        CLEAR     28  25  86 N5        30.13R WCI  23
SANTA FE       PTCLDY    20  17  88 N7        30.10R WCI  11
TRUTH OR CONSE MOCLDY    36  28  73 W3        30.13R
TUCUMCARI      FOG       29  27  92 CALM      30.06S VSB 1/4
$$



USA.gov is the U.S. government's official web portal to all federal, state and local government web resources and services.